TimePST,TemperatureF,Dew PointF,Humidity,Sea Level PressureIn,VisibilityMPH,Wind Direction,Wind SpeedMPH,Gust SpeedMPH,PrecipitationIn,Events,Conditions,WindDirDegrees,DateUTC
12:53 AM,63.0,43.0,48,30.06,10.0,SW,5.8,-,N/A,,Clear,230,2012-12-22 08:53:00
1:53 AM,64.0,44.1,48,30.06,10.0,SW,3.5,-,N/A,,Clear,230,2012-12-22 09:53:00
2:53 AM,64.0,44.1,48,30.06,10.0,WSW,3.5,-,N/A,,Clear,240,2012-12-22 10:53:00
3:53 AM,66.0,45.0,47,30.06,10.0,Calm,Calm,-,N/A,,Scattered Clouds,0,2012-12-22 11:53:00
4:53 AM,66.0,45.0,47,30.06,10.0,Calm,Calm,-,N/A,,Mostly Cloudy,0,2012-12-22 12:53:00
5:15 AM,66.2,46.4,49,30.08,10.0,South,3.5,-,N/A,,Scattered Clouds,190,2012-12-22 13:15:00
5:53 AM,59.2,47.3,65,30.08,7.0,Calm,Calm,-,N/A,,Scattered Clouds,0,2012-12-22 13:53:00
6:53 AM,48.4,48.4,100,30.09,7.0,South,4.6,-,N/A,,Scattered Clouds,180,2012-12-22 14:53:00
7:53 AM,52.9,49.1,87,30.09,7.0,South,5.8,-,N/A,,Scattered Clouds,170,2012-12-22 15:53:00
8:53 AM,56.3,50.7,82,30.12,7.0,South,5.8,-,N/A,,Mostly Cloudy,190,2012-12-22 16:53:00
9:53 AM,57.7,51.8,81,30.14,7.0,South,5.8,-,N/A,,Scattered Clouds,170,2012-12-22 17:53:00
10:53 AM,58.5,51.1,76,30.14,7.0,South,5.8,-,N/A,,Scattered Clouds,180,2012-12-22 18:53:00
11:53 AM,75.9,50.0,40,30.12,10.0,South,6.9,-,N/A,,Overcast,170,2012-12-22 19:53:00
12:53 PM,77.0,48.9,37,30.10,10.0,South,10.4,-,N/A,,Mostly Cloudy,180,2012-12-22 20:53:00
1:53 PM,61.2,49.6,66,30.09,7.0,South,11.5,-,N/A,,Mostly Cloudy,180,2012-12-22 21:53:00
2:53 PM,60.1,50.2,70,30.10,7.0,SSW,10.4,-,N/A,,Mostly Cloudy,210,2012-12-22 22:53:00
3:53 PM,73.9,53.1,48,30.10,10.0,Variable,6.9,-,N/A,,Overcast,0,2012-12-22 23:53:00
4:31 PM,71.6,53.6,53,30.12,10.0,SSW,6.9,-,N/A,,Overcast,210,2012-12-23 00:31:00
4:53 PM,73.9,54.0,50,30.10,10.0,SW,8.1,-,N/A,,Overcast,220,2012-12-23 00:53:00
5:03 PM,73.4,53.6,50,30.12,10.0,SSW,10.4,-,N/A,,Overcast,210,2012-12-23 01:03:00
5:10 PM,73.4,53.6,50,30.12,10.0,SW,10.4,-,N/A,,Overcast,220,2012-12-23 01:10:00
5:53 PM,73.0,54.0,51,30.12,10.0,SW,9.2,-,N/A,,Overcast,220,2012-12-23 01:53:00
6:33 PM,73.4,55.4,53,30.14,7.0,SSW,5.8,-,N/A,,Overcast,200,2012-12-23 02:33:00
6:53 PM,73.9,55.0,52,30.13,9.0,SSW,8.1,-,N/A,,Overcast,210,2012-12-23 02:53:00
7:53 PM,75.0,55.9,51,30.14,7.0,SW,10.4,-,N/A,,Overcast,230,2012-12-23 03:53:00
8:19 PM,73.4,55.4,53,30.16,2.0,SW,10.4,-,N/A,,Haze,220,2012-12-23 04:19:00
8:37 PM,73.4,55.4,53,30.16,1.0,SSW,8.1,-,N/A,,Haze,210,2012-12-23 04:37:00
8:53 PM,73.9,55.9,53,30.15,2.0,SW,6.9,-,N/A,,Haze,220,2012-12-23 04:53:00
9:02 PM,73.4,55.4,53,30.16,1.8,SSW,9.2,-,N/A,,Haze,210,2012-12-23 05:02:00
9:13 PM,75.2,55.4,50,30.16,2.5,SSW,10.4,-,N/A,,Haze,210,2012-12-23 05:13:00
9:39 PM,73.4,55.4,53,30.16,0.8,WSW,8.1,-,N/A,,Haze,240,2012-12-23 05:39:00
9:53 PM,73.9,55.0,52,30.14,0.5,WSW,6.9,-,N/A,,Haze,250,2012-12-23 05:53:00
10:01 PM,73.4,55.4,53,30.16,2.5,WSW,9.2,-,N/A,,Haze,240,2012-12-23 06:01:00
10:13 PM,73.4,55.4,53,30.16,0.8,WSW,6.9,-,N/A,,Haze,240,2012-12-23 06:13:00
10:53 PM,70.0,-9999,N/A,30.15,0.2,SW,5.8,-,N/A,Fog,Fog,230,2012-12-23 06:53:00
11:53 PM,73.9,-9999,N/A,30.14,1.2,SSW,5.8,-,N/A,,Overcast,210,2012-12-23 07:53:00